Year,Month,Day,Hour,Minute,Value (Times are PST for temperature in C)
2017,05,26,00,00,20.20
2017,05,26,00,01,20.10
2017,05,26,00,02,20.10
2017,05,26,00,03,20.10
2017,05,26,00,04,20.10
2017,05,26,00,05,20.10
2017,05,26,00,06,20.10
2017,05,26,00,07,20.10
2017,05,26,00,08,20.10
2017,05,26,00,09,20.00
2017,05,26,00,10,20.00
2017,05,26,00,11,19.90
2017,05,26,00,12,19.80
2017,05,26,00,13,19.80
2017,05,26,00,14,19.70
2017,05,26,00,15,19.60
2017,05,26,00,16,19.60
2017,05,26,00,17,19.60
2017,05,26,00,18,19.50
2017,05,26,00,19,19.50
2017,05,26,00,20,19.50
2017,05,26,00,21,19.50
2017,05,26,00,22,19.60
2017,05,26,00,23,19.60
2017,05,26,00,24,19.60
2017,05,26,00,25,19.60
2017,05,26,00,26,19.60
2017,05,26,00,27,19.60
2017,05,26,00,28,19.60
2017,05,26,00,29,19.60
2017,05,26,00,30,19.70
2017,05,26,00,31,19.70
2017,05,26,00,32,19.70
2017,05,26,00,33,19.70
2017,05,26,00,34,19.60
2017,05,26,00,35,19.60
2017,05,26,00,36,19.60
2017,05,26,00,37,19.60
2017,05,26,00,38,19.50
2017,05,26,00,39,19.50
2017,05,26,00,40,19.40
2017,05,26,00,41,19.40
2017,05,26,00,42,19.40
2017,05,26,00,43,19.30
2017,05,26,00,44,19.30
2017,05,26,00,45,19.30
2017,05,26,00,46,19.30
2017,05,26,00,47,19.30
2017,05,26,00,48,19.20
2017,05,26,00,49,19.20
2017,05,26,00,50,19.20
2017,05,26,00,51,19.20
2017,05,26,00,52,19.10
2017,05,26,00,53,19.10
2017,05,26,00,54,19.00
2017,05,26,00,55,18.90
2017,05,26,00,56,18.80
2017,05,26,00,57,18.70
2017,05,26,00,58,18.60
2017,05,26,00,59,18.40
2017,05,26,01,00,18.20
2017,05,26,01,01,18.00
2017,05,26,01,02,17.70
2017,05,26,01,03,17.50
2017,05,26,01,04,17.30
2017,05,26,01,05,17.20
2017,05,26,01,06,17.00
2017,05,26,01,07,16.70
2017,05,26,01,08,16.60
2017,05,26,01,09,16.50
2017,05,26,01,10,16.40
2017,05,26,01,11,16.30
2017,05,26,01,12,16.20
2017,05,26,01,13,16.20
2017,05,26,01,14,16.10
2017,05,26,01,15,16.00
2017,05,26,01,16,16.00
2017,05,26,01,17,16.10
2017,05,26,01,18,16.10
2017,05,26,01,19,16.10
2017,05,26,01,20,16.10
2017,05,26,01,21,16.10
2017,05,26,01,22,16.10
2017,05,26,01,23,16.10
2017,05,26,01,24,16.10
2017,05,26,01,25,16.10
2017,05,26,01,26,16.00
2017,05,26,01,27,16.00
2017,05,26,01,28,16.00
2017,05,26,01,29,15.90
2017,05,26,01,30,15.90
2017,05,26,01,31,15.90
2017,05,26,01,32,15.90
2017,05,26,01,33,15.80
2017,05,26,01,34,15.80
2017,05,26,01,35,15.80
2017,05,26,01,36,15.80
2017,05,26,01,37,15.80
2017,05,26,01,38,15.80
2017,05,26,01,39,15.90
2017,05,26,01,40,15.90
2017,05,26,01,41,15.90
2017,05,26,01,42,15.90
2017,05,26,01,43,15.90
2017,05,26,01,44,15.80
2017,05,26,01,45,15.80
2017,05,26,01,46,15.80
2017,05,26,01,47,15.70
2017,05,26,01,48,15.60
2017,05,26,01,49,15.60
2017,05,26,01,50,15.50
2017,05,26,01,51,15.50
2017,05,26,01,52,15.40
2017,05,26,01,53,15.40
2017,05,26,01,54,15.40
2017,05,26,01,55,15.40
2017,05,26,01,56,15.50
2017,05,26,01,57,15.50
2017,05,26,01,58,15.50
2017,05,26,01,59,15.50
2017,05,26,02,00,15.50
2017,05,26,02,01,15.50
2017,05,26,02,02,15.60
2017,05,26,02,03,15.60
2017,05,26,02,04,15.60
2017,05,26,02,05,15.60
2017,05,26,02,06,15.60
2017,05,26,02,07,15.60
2017,05,26,02,08,15.60
2017,05,26,02,09,15.70
2017,05,26,02,10,15.70
2017,05,26,02,11,15.70
2017,05,26,02,12,15.70
2017,05,26,02,13,15.70
2017,05,26,02,14,15.70
2017,05,26,02,15,15.80
2017,05,26,02,16,15.80
2017,05,26,02,17,15.80
2017,05,26,02,18,15.80
2017,05,26,02,19,15.80
2017,05,26,02,20,15.90
2017,05,26,02,21,15.90
2017,05,26,02,22,15.90
2017,05,26,02,23,15.90
2017,05,26,02,24,15.90
2017,05,26,02,25,15.80
2017,05,26,02,26,15.80
2017,05,26,02,27,15.80
2017,05,26,02,28,15.80
2017,05,26,02,29,15.80
2017,05,26,02,30,15.80
2017,05,26,02,31,15.70
2017,05,26,02,32,15.70
2017,05,26,02,33,15.70
2017,05,26,02,34,15.70
2017,05,26,02,35,15.70
2017,05,26,02,36,15.70
2017,05,26,02,37,15.70
2017,05,26,02,38,15.70
2017,05,26,02,39,15.70
2017,05,26,02,40,15.70
2017,05,26,02,41,15.70
2017,05,26,02,42,15.60
2017,05,26,02,43,15.60
2017,05,26,02,44,15.60
2017,05,26,02,45,15.60
2017,05,26,02,46,15.60
2017,05,26,02,47,15.60
2017,05,26,02,48,15.60
2017,05,26,02,49,15.60
2017,05,26,02,50,15.60
2017,05,26,02,51,15.60
2017,05,26,02,52,15.70
2017,05,26,02,53,15.70
2017,05,26,02,54,15.70
2017,05,26,02,55,15.70
2017,05,26,02,56,15.70
2017,05,26,02,57,15.70
2017,05,26,02,58,15.70
2017,05,26,02,59,15.70
2017,05,26,03,00,15.70
2017,05,26,03,01,15.80
2017,05,26,03,02,15.80
2017,05,26,03,03,15.90
2017,05,26,03,04,15.90
2017,05,26,03,05,15.90
2017,05,26,03,06,15.90
2017,05,26,03,07,15.90
2017,05,26,03,08,16.00
2017,05,26,03,09,16.00
2017,05,26,03,10,16.00
2017,05,26,03,11,16.00
2017,05,26,03,12,16.10
2017,05,26,03,13,16.10
2017,05,26,03,14,16.10
2017,05,26,03,15,16.10
2017,05,26,03,16,16.10
2017,05,26,03,17,16.10
2017,05,26,03,18,16.10
2017,05,26,03,19,16.10
2017,05,26,03,20,16.10
2017,05,26,03,21,16.20
2017,05,26,03,22,16.20
2017,05,26,03,23,16.20
2017,05,26,03,24,16.20
2017,05,26,03,25,16.20
2017,05,26,03,26,16.20
2017,05,26,03,27,16.20
2017,05,26,03,28,16.20
2017,05,26,03,29,16.20
2017,05,26,03,30,16.20
2017,05,26,03,31,16.20
2017,05,26,03,32,16.20
2017,05,26,03,33,16.20
2017,05,26,03,34,16.10
2017,05,26,03,35,16.10
2017,05,26,03,36,16.10
2017,05,26,03,37,16.10
2017,05,26,03,38,16.10
2017,05,26,03,39,16.00
2017,05,26,03,40,16.00
2017,05,26,03,41,16.00
2017,05,26,03,42,15.90
2017,05,26,03,43,15.90
2017,05,26,03,44,15.90
2017,05,26,03,45,15.90
2017,05,26,03,46,15.90
2017,05,26,03,47,15.90
2017,05,26,03,48,15.90
2017,05,26,03,49,15.90
2017,05,26,03,50,15.90
2017,05,26,03,51,15.90
2017,05,26,03,52,15.80
2017,05,26,03,53,15.80
2017,05,26,03,54,15.80
2017,05,26,03,55,15.80
2017,05,26,03,56,15.80
2017,05,26,03,57,15.80
2017,05,26,03,58,15.70
2017,05,26,03,59,15.70
2017,05,26,04,00,15.70
2017,05,26,04,01,15.60
2017,05,26,04,02,15.60
2017,05,26,04,03,15.60
2017,05,26,04,04,15.60
2017,05,26,04,05,15.60
2017,05,26,04,06,15.60
2017,05,26,04,07,15.60
2017,05,26,04,08,15.60
2017,05,26,04,09,15.60
2017,05,26,04,10,15.70
2017,05,26,04,11,15.70
2017,05,26,04,12,15.70
2017,05,26,04,13,15.70
2017,05,26,04,14,15.70
2017,05,26,04,15,15.70
2017,05,26,04,16,15.70
2017,05,26,04,17,15.70
2017,05,26,04,18,15.70
2017,05,26,04,19,15.70
2017,05,26,04,20,15.70
2017,05,26,04,21,15.70
2017,05,26,04,22,15.70
2017,05,26,04,23,15.70
2017,05,26,04,24,15.60
2017,05,26,04,25,15.60
2017,05,26,04,26,15.60
2017,05,26,04,27,15.60
2017,05,26,04,28,15.50
2017,05,26,04,29,15.50
2017,05,26,04,30,15.50
2017,05,26,04,31,15.60
2017,05,26,04,32,15.60
2017,05,26,04,33,15.60
2017,05,26,04,34,15.60
2017,05,26,04,35,15.60
2017,05,26,04,36,15.60
2017,05,26,04,37,15.60
2017,05,26,04,38,15.60
2017,05,26,04,39,15.60
2017,05,26,04,40,15.60
2017,05,26,04,41,15.50
2017,05,26,04,42,15.40
2017,05,26,04,43,15.40
2017,05,26,04,44,15.40
2017,05,26,04,45,15.40
2017,05,26,04,46,15.30
2017,05,26,04,47,15.30
2017,05,26,04,48,15.30
2017,05,26,04,49,15.20
2017,05,26,04,50,15.10
2017,05,26,04,51,15.00
2017,05,26,04,52,15.00
2017,05,26,04,53,14.90
2017,05,26,04,54,14.60
2017,05,26,04,55,14.40
2017,05,26,04,56,14.30
2017,05,26,04,57,14.20
2017,05,26,04,58,14.00
2017,05,26,04,59,13.90
2017,05,26,05,00,13.70
2017,05,26,05,01,13.70
2017,05,26,05,02,13.60
2017,05,26,05,03,13.50
2017,05,26,05,04,13.50
2017,05,26,05,05,13.40
2017,05,26,05,06,13.40
2017,05,26,05,07,13.40
2017,05,26,05,08,13.40
2017,05,26,05,09,13.40
2017,05,26,05,10,13.40
2017,05,26,05,11,13.40
2017,05,26,05,12,13.40
2017,05,26,05,13,13.40
2017,05,26,05,14,13.40
2017,05,26,05,15,13.40
2017,05,26,05,16,13.40
2017,05,26,05,17,13.40
2017,05,26,05,18,13.40
2017,05,26,05,19,13.40
2017,05,26,05,20,13.40
2017,05,26,05,21,13.50
2017,05,26,05,22,13.50
2017,05,26,05,23,13.50
2017,05,26,05,24,13.50
2017,05,26,05,25,13.60
2017,05,26,05,26,13.60
2017,05,26,05,27,13.60
2017,05,26,05,28,13.60
2017,05,26,05,29,13.50
2017,05,26,05,30,13.50
2017,05,26,05,31,13.50
2017,05,26,05,32,13.50
2017,05,26,05,33,13.50
2017,05,26,05,34,13.60
2017,05,26,05,35,13.60
2017,05,26,05,36,13.70
2017,05,26,05,37,13.70
2017,05,26,05,38,13.70
2017,05,26,05,39,13.80
2017,05,26,05,40,13.80
2017,05,26,05,41,13.80
2017,05,26,05,42,13.80
2017,05,26,05,43,13.80
2017,05,26,05,44,13.80
2017,05,26,05,45,13.90
2017,05,26,05,46,13.90
2017,05,26,05,47,13.90
2017,05,26,05,48,13.80
2017,05,26,05,49,13.80
2017,05,26,05,50,13.70
2017,05,26,05,51,13.70
2017,05,26,05,52,13.60
2017,05,26,05,53,13.60
2017,05,26,05,54,13.60
2017,05,26,05,55,13.60
2017,05,26,05,56,13.60
2017,05,26,05,57,13.60
2017,05,26,05,58,13.60
2017,05,26,05,59,13.60
2017,05,26,06,00,13.60
2017,05,26,06,01,13.60
2017,05,26,06,02,13.60
2017,05,26,06,03,13.60
2017,05,26,06,04,13.60
2017,05,26,06,05,13.70
2017,05,26,06,06,13.70
2017,05,26,06,07,13.70
2017,05,26,06,08,13.70
2017,05,26,06,09,13.80
2017,05,26,06,10,13.80
2017,05,26,06,11,13.80
2017,05,26,06,12,13.80
2017,05,26,06,13,13.80
2017,05,26,06,14,13.80
2017,05,26,06,15,13.80
2017,05,26,06,16,13.80
2017,05,26,06,17,13.80
2017,05,26,06,18,13.80
2017,05,26,06,19,13.80
2017,05,26,06,20,13.80
2017,05,26,06,21,13.80
2017,05,26,06,22,13.80
2017,05,26,06,23,13.80
2017,05,26,06,24,13.90
2017,05,26,06,25,13.90
2017,05,26,06,26,13.90
2017,05,26,06,27,13.90
2017,05,26,06,28,13.90
2017,05,26,06,29,13.90
2017,05,26,06,30,13.90
2017,05,26,06,31,13.90
2017,05,26,06,32,13.90
2017,05,26,06,33,13.90
2017,05,26,06,34,13.90
2017,05,26,06,35,13.90
2017,05,26,06,36,13.90
2017,05,26,06,37,13.90
2017,05,26,06,38,13.90
2017,05,26,06,39,13.90
2017,05,26,06,40,13.90
2017,05,26,06,41,13.90
2017,05,26,06,42,13.90
2017,05,26,06,43,13.90
2017,05,26,06,44,14.00
2017,05,26,06,45,14.00
2017,05,26,06,46,14.00
2017,05,26,06,47,14.00
2017,05,26,06,48,14.00
2017,05,26,06,49,14.10
2017,05,26,06,50,14.10
2017,05,26,06,51,14.10
2017,05,26,06,52,14.10
2017,05,26,06,53,14.10
2017,05,26,06,54,14.10
2017,05,26,06,55,14.10
2017,05,26,06,56,14.20
2017,05,26,06,57,14.20
2017,05,26,06,58,14.20
2017,05,26,06,59,14.20
2017,05,26,07,00,14.20
2017,05,26,07,01,14.20
2017,05,26,07,02,14.20
2017,05,26,07,03,14.30
2017,05,26,07,04,14.30
2017,05,26,07,05,14.30
2017,05,26,07,06,14.40
2017,05,26,07,07,14.40
2017,05,26,07,08,14.50
2017,05,26,07,09,14.50
2017,05,26,07,10,14.60
2017,05,26,07,11,14.60
2017,05,26,07,12,14.60
2017,05,26,07,13,14.70
2017,05,26,07,14,14.70
2017,05,26,07,15,14.80
2017,05,26,07,16,14.70
2017,05,26,07,17,14.70
2017,05,26,07,18,14.70
2017,05,26,07,19,14.70
2017,05,26,07,20,14.80
2017,05,26,07,21,14.80
2017,05,26,07,22,14.80
2017,05,26,07,23,14.80
2017,05,26,07,24,14.80
2017,05,26,07,25,14.80
2017,05,26,07,26,14.80
2017,05,26,07,27,14.80
2017,05,26,07,28,14.80
2017,05,26,07,29,14.80
2017,05,26,07,30,14.80
2017,05,26,07,31,14.80
2017,05,26,07,32,14.90
2017,05,26,07,33,15.00
2017,05,26,07,34,15.00
2017,05,26,07,35,15.00
2017,05,26,07,36,15.00
2017,05,26,07,37,15.00
2017,05,26,07,38,15.10
2017,05,26,07,39,15.10
2017,05,26,07,40,15.20
2017,05,26,07,41,15.20
2017,05,26,07,42,15.20
2017,05,26,07,43,15.30
2017,05,26,07,44,15.30
2017,05,26,07,45,15.30
2017,05,26,07,46,15.30
2017,05,26,07,47,15.30
2017,05,26,07,48,15.30
2017,05,26,07,49,15.40
2017,05,26,07,50,15.40
2017,05,26,07,51,15.50
2017,05,26,07,52,15.50
2017,05,26,07,53,15.60
2017,05,26,07,54,15.70
2017,05,26,07,55,15.80
2017,05,26,07,56,15.90
2017,05,26,07,57,15.90
2017,05,26,07,58,16.00
2017,05,26,07,59,16.10
2017,05,26,08,00,16.20
2017,05,26,08,01,16.30
2017,05,26,08,02,16.30
2017,05,26,08,03,16.30
2017,05,26,08,04,16.40
2017,05,26,08,05,16.50
2017,05,26,08,06,16.50
2017,05,26,08,07,16.60
2017,05,26,08,08,16.60
2017,05,26,08,09,16.60
2017,05,26,08,10,16.60
2017,05,26,08,11,16.60
2017,05,26,08,12,16.70
2017,05,26,08,13,16.70
2017,05,26,08,14,16.70
2017,05,26,08,15,16.70
2017,05,26,08,16,16.70
2017,05,26,08,17,16.70
2017,05,26,08,18,16.60
2017,05,26,08,19,16.60
2017,05,26,08,20,16.60
2017,05,26,08,21,16.60
2017,05,26,08,22,16.70
2017,05,26,08,23,16.70
2017,05,26,08,24,16.70
2017,05,26,08,25,16.60
2017,05,26,08,26,16.60
2017,05,26,08,27,16.70
2017,05,26,08,28,16.80
2017,05,26,08,29,16.80
2017,05,26,08,30,16.80
2017,05,26,08,31,16.70
2017,05,26,08,32,16.70
2017,05,26,08,33,16.60
2017,05,26,08,34,16.60
2017,05,26,08,35,16.60
2017,05,26,08,36,16.60
2017,05,26,08,37,16.60
2017,05,26,08,38,16.60
2017,05,26,08,39,16.60
2017,05,26,08,40,16.60
2017,05,26,08,41,16.60
2017,05,26,08,42,16.60
2017,05,26,08,43,16.60
2017,05,26,08,44,16.70
2017,05,26,08,45,16.70
2017,05,26,08,46,16.70
2017,05,26,08,47,16.70
2017,05,26,08,48,16.70
2017,05,26,08,49,16.80
2017,05,26,08,50,16.90
2017,05,26,08,51,17.00
2017,05,26,08,52,17.10
2017,05,26,08,53,17.20
2017,05,26,08,54,17.30
2017,05,26,08,55,17.40
2017,05,26,08,56,17.60
2017,05,26,08,57,17.60
2017,05,26,08,58,17.70
2017,05,26,08,59,17.70
2017,05,26,09,00,17.70
2017,05,26,09,01,17.60
2017,05,26,09,02,17.60
2017,05,26,09,03,17.50
2017,05,26,09,04,17.40
2017,05,26,09,05,17.40
2017,05,26,09,06,17.40
2017,05,26,09,07,17.40
2017,05,26,09,08,17.40
2017,05,26,09,09,17.40
2017,05,26,09,10,17.50
2017,05,26,09,11,17.60
2017,05,26,09,12,17.60
2017,05,26,09,13,17.60
2017,05,26,09,14,17.60
2017,05,26,09,15,17.50
2017,05,26,09,16,17.50
2017,05,26,09,17,17.40
2017,05,26,09,18,17.40
2017,05,26,09,19,17.50
2017,05,26,09,20,17.60
2017,05,26,09,21,17.60
2017,05,26,09,22,17.70
2017,05,26,09,23,17.80
2017,05,26,09,24,17.80
2017,05,26,09,25,17.80
2017,05,26,09,26,17.80
2017,05,26,09,27,17.80
2017,05,26,09,28,17.80
2017,05,26,09,29,17.80
2017,05,26,09,30,17.90
2017,05,26,09,31,17.90
2017,05,26,09,32,17.90
2017,05,26,09,33,17.80
2017,05,26,09,34,17.80
2017,05,26,09,35,17.80
2017,05,26,09,36,17.70
2017,05,26,09,37,17.60
2017,05,26,09,38,17.70
2017,05,26,09,39,17.70
2017,05,26,09,40,17.70
2017,05,26,09,41,17.70
2017,05,26,09,42,17.80
2017,05,26,09,43,18.00
2017,05,26,09,44,18.10
2017,05,26,09,45,18.20
2017,05,26,09,46,18.20
2017,05,26,09,47,18.30
2017,05,26,09,48,18.40
2017,05,26,09,49,18.40
2017,05,26,09,50,18.40
2017,05,26,09,51,18.50
2017,05,26,09,52,18.60
2017,05,26,09,53,18.50
2017,05,26,09,54,18.40
2017,05,26,09,55,18.40
2017,05,26,09,56,18.40
2017,05,26,09,57,18.30
2017,05,26,09,58,18.40
2017,05,26,09,59,18.40
2017,05,26,10,00,18.30
2017,05,26,10,01,18.40
2017,05,26,10,02,18.30
2017,05,26,10,03,18.20
2017,05,26,10,04,18.10
2017,05,26,10,05,18.10
2017,05,26,10,06,18.10
2017,05,26,10,07,18.10
2017,05,26,10,08,18.10
2017,05,26,10,09,18.00
2017,05,26,10,10,18.00
2017,05,26,10,11,18.10
2017,05,26,10,12,18.20
2017,05,26,10,13,18.20
2017,05,26,10,14,18.30
2017,05,26,10,15,18.30
2017,05,26,10,16,18.30
2017,05,26,10,17,18.30
2017,05,26,10,18,18.40
2017,05,26,10,19,18.50
2017,05,26,10,20,18.40
2017,05,26,10,21,18.30
2017,05,26,10,22,18.30
2017,05,26,10,23,18.20
2017,05,26,10,24,18.10
2017,05,26,10,25,18.10
2017,05,26,10,26,18.20
2017,05,26,10,27,18.20
2017,05,26,10,28,18.30
2017,05,26,10,29,18.30
2017,05,26,10,30,18.30
2017,05,26,10,31,18.40
2017,05,26,10,32,18.60
2017,05,26,10,33,18.80
2017,05,26,10,34,18.90
2017,05,26,10,35,19.10
2017,05,26,10,36,19.20
2017,05,26,10,37,19.20
2017,05,26,10,38,19.20
2017,05,26,10,39,19.10
2017,05,26,10,40,19.10
2017,05,26,10,41,19.10
2017,05,26,10,42,19.20
2017,05,26,10,43,19.30
2017,05,26,10,44,19.40
2017,05,26,10,45,19.40
2017,05,26,10,46,19.50
2017,05,26,10,47,19.60
2017,05,26,10,48,19.50
2017,05,26,10,49,19.60
2017,05,26,10,50,19.60
2017,05,26,10,51,19.60
2017,05,26,10,52,19.60
2017,05,26,10,53,19.60
2017,05,26,10,54,19.60
2017,05,26,10,55,19.60
2017,05,26,10,56,19.60
2017,05,26,10,57,19.60
2017,05,26,10,58,19.60
2017,05,26,10,59,19.70
2017,05,26,11,00,19.70
2017,05,26,11,01,19.80
2017,05,26,11,02,19.80
2017,05,26,11,03,19.90
2017,05,26,11,04,19.90
2017,05,26,11,05,19.90
2017,05,26,11,06,20.00
2017,05,26,11,07,20.10
2017,05,26,11,08,20.10
2017,05,26,11,09,20.30
2017,05,26,11,10,20.40
2017,05,26,11,11,20.40
2017,05,26,11,12,20.30
2017,05,26,11,13,20.20
2017,05,26,11,14,20.20
2017,05,26,11,15,20.20
2017,05,26,11,16,20.20
2017,05,26,11,17,20.20
2017,05,26,11,18,20.10
2017,05,26,11,19,20.00
2017,05,26,11,20,20.00
2017,05,26,11,21,19.90
2017,05,26,11,22,19.90
2017,05,26,11,23,19.90
2017,05,26,11,24,19.80
2017,05,26,11,25,19.70
2017,05,26,11,26,19.70
2017,05,26,11,27,19.60
2017,05,26,11,28,19.60
2017,05,26,11,29,19.60
2017,05,26,11,30,19.60
2017,05,26,11,31,19.50
2017,05,26,11,32,19.40
2017,05,26,11,33,19.30
2017,05,26,11,34,19.40
2017,05,26,11,35,19.50
2017,05,26,11,36,19.60
2017,05,26,11,37,19.70
2017,05,26,11,38,19.70
2017,05,26,11,39,19.70
2017,05,26,11,40,19.70
2017,05,26,11,41,19.60
2017,05,26,11,42,19.50
2017,05,26,11,43,19.50
2017,05,26,11,44,19.40
2017,05,26,11,45,19.40
2017,05,26,11,46,19.40
2017,05,26,11,47,19.50
2017,05,26,11,48,19.60
2017,05,26,11,49,19.60
2017,05,26,11,50,19.50
2017,05,26,11,51,19.40
2017,05,26,11,52,19.40
2017,05,26,11,53,19.30
2017,05,26,11,54,19.20
2017,05,26,11,55,19.10
2017,05,26,11,56,19.10
2017,05,26,11,57,19.00
2017,05,26,11,58,18.90
2017,05,26,11,59,19.00
2017,05,26,12,00,19.20
2017,05,26,12,01,19.20
2017,05,26,12,02,19.20
2017,05,26,12,03,19.00
2017,05,26,12,04,18.90
2017,05,26,12,05,18.70
2017,05,26,12,06,18.60
2017,05,26,12,07,18.50
2017,05,26,12,08,18.40
2017,05,26,12,09,18.50
2017,05,26,12,10,18.50
2017,05,26,12,11,18.60
2017,05,26,12,12,18.60
2017,05,26,12,13,18.70
2017,05,26,12,14,18.70
2017,05,26,12,15,18.70
2017,05,26,12,16,18.70
2017,05,26,12,17,18.70
2017,05,26,12,18,18.60
2017,05,26,12,19,18.60
2017,05,26,12,20,18.60
2017,05,26,12,21,18.60
2017,05,26,12,22,18.60
2017,05,26,12,23,18.70
2017,05,26,12,24,18.80
2017,05,26,12,25,18.80
2017,05,26,12,26,18.80
2017,05,26,12,27,18.90
2017,05,26,12,28,19.00
2017,05,26,12,29,19.10
2017,05,26,12,30,19.30
2017,05,26,12,31,19.40
2017,05,26,12,32,19.60
2017,05,26,12,33,19.70
2017,05,26,12,34,19.80
2017,05,26,12,35,19.80
2017,05,26,12,36,19.80
2017,05,26,12,37,19.70
2017,05,26,12,38,19.60
2017,05,26,12,39,19.60
2017,05,26,12,40,19.70
2017,05,26,12,41,19.70
2017,05,26,12,42,19.70
2017,05,26,12,43,19.70
2017,05,26,12,44,19.70
2017,05,26,12,45,19.70
2017,05,26,12,46,19.60
2017,05,26,12,47,19.60
2017,05,26,12,48,19.60
2017,05,26,12,49,19.70
2017,05,26,12,50,19.80
2017,05,26,12,51,19.80
2017,05,26,12,52,19.90
2017,05,26,12,53,19.80
2017,05,26,12,54,19.80
2017,05,26,12,55,19.70
2017,05,26,12,56,19.70
2017,05,26,12,57,19.70
2017,05,26,12,58,19.70
2017,05,26,12,59,19.80
2017,05,26,13,00,19.90
2017,05,26,13,01,19.90
2017,05,26,13,02,19.90
2017,05,26,13,03,19.90
2017,05,26,13,04,19.80
2017,05,26,13,05,19.70
2017,05,26,13,06,19.60
2017,05,26,13,07,19.60
2017,05,26,13,08,19.60
2017,05,26,13,09,19.70
2017,05,26,13,10,19.80
2017,05,26,13,11,19.80
2017,05,26,13,12,19.90
2017,05,26,13,13,19.90
2017,05,26,13,14,19.80
2017,05,26,13,15,19.80
2017,05,26,13,16,19.60
2017,05,26,13,17,19.50
2017,05,26,13,18,19.40
2017,05,26,13,19,19.30
2017,05,26,13,20,19.20
2017,05,26,13,21,19.20
2017,05,26,13,22,19.20
2017,05,26,13,23,19.30
2017,05,26,13,24,19.30
2017,05,26,13,25,19.30
2017,05,26,13,26,19.20
2017,05,26,13,27,19.20
2017,05,26,13,28,19.20
2017,05,26,13,29,19.20
2017,05,26,13,30,19.30
2017,05,26,13,31,19.30
2017,05,26,13,32,19.30
2017,05,26,13,33,19.30
2017,05,26,13,34,19.30
2017,05,26,13,35,19.40
2017,05,26,13,36,19.40
2017,05,26,13,37,19.50
2017,05,26,13,38,19.50
2017,05,26,13,39,19.50
2017,05,26,13,40,19.50
2017,05,26,13,41,19.40
2017,05,26,13,42,19.30
2017,05,26,13,43,19.30
2017,05,26,13,44,19.40
2017,05,26,13,45,19.40
2017,05,26,13,46,19.50
2017,05,26,13,47,19.60
2017,05,26,13,48,19.60
2017,05,26,13,49,19.60
2017,05,26,13,50,19.60
2017,05,26,13,51,19.70
2017,05,26,13,52,19.70
2017,05,26,13,53,19.60
2017,05,26,13,54,19.50
2017,05,26,13,55,19.40
2017,05,26,13,56,19.40
2017,05,26,13,57,19.50
2017,05,26,13,58,19.60
2017,05,26,13,59,19.60
2017,05,26,14,00,19.70
2017,05,26,14,01,19.70
2017,05,26,14,02,19.80
2017,05,26,14,03,19.80
2017,05,26,14,04,19.80
2017,05,26,14,05,19.80
2017,05,26,14,06,19.70
2017,05,26,14,07,19.70
2017,05,26,14,08,19.70
2017,05,26,14,09,19.70
2017,05,26,14,10,19.70
2017,05,26,14,11,19.80
2017,05,26,14,12,19.90
2017,05,26,14,13,20.00
2017,05,26,14,14,20.00
2017,05,26,14,15,19.90
2017,05,26,14,16,20.00
2017,05,26,14,17,20.00
2017,05,26,14,18,20.00
2017,05,26,14,19,20.00
2017,05,26,14,20,20.00
2017,05,26,14,21,20.00
2017,05,26,14,22,20.00
2017,05,26,14,23,20.00
2017,05,26,14,24,19.90
2017,05,26,14,25,19.90
2017,05,26,14,26,19.90
2017,05,26,14,27,19.90
2017,05,26,14,28,19.90
2017,05,26,14,29,19.90
2017,05,26,14,30,19.90
2017,05,26,14,31,20.00
2017,05,26,14,32,20.10
2017,05,26,14,33,20.10
2017,05,26,14,34,20.10
2017,05,26,14,35,20.10
2017,05,26,14,36,20.10
2017,05,26,14,37,20.20
2017,05,26,14,38,20.20
2017,05,26,14,39,20.20
2017,05,26,14,40,20.20
2017,05,26,14,41,20.20
2017,05,26,14,42,20.20
2017,05,26,14,43,20.10
2017,05,26,14,44,20.10
2017,05,26,14,45,20.00
2017,05,26,14,46,20.10
2017,05,26,14,47,20.10
2017,05,26,14,48,20.10
2017,05,26,14,49,20.10
2017,05,26,14,50,20.10
2017,05,26,14,51,20.10
2017,05,26,14,52,20.10
2017,05,26,14,53,20.20
2017,05,26,14,54,20.20
2017,05,26,14,55,20.30
2017,05,26,14,56,20.40
2017,05,26,14,57,20.50
2017,05,26,14,58,20.60
2017,05,26,14,59,20.70
2017,05,26,15,00,20.80
2017,05,26,15,01,20.80
2017,05,26,15,02,20.80
2017,05,26,15,03,20.80
2017,05,26,15,04,20.80
2017,05,26,15,05,20.70
2017,05,26,15,06,20.60
2017,05,26,15,07,20.60
2017,05,26,15,08,20.60
2017,05,26,15,09,20.60
2017,05,26,15,10,20.70
2017,05,26,15,11,20.90
2017,05,26,15,12,20.90
2017,05,26,15,13,20.90
2017,05,26,15,14,20.90
2017,05,26,15,15,20.90
2017,05,26,15,16,21.00
2017,05,26,15,17,21.10
2017,05,26,15,18,21.10
2017,05,26,15,19,21.10
2017,05,26,15,20,21.10
2017,05,26,15,21,21.10
2017,05,26,15,22,21.00
2017,05,26,15,23,21.00
2017,05,26,15,24,20.90
2017,05,26,15,25,21.00
2017,05,26,15,26,21.10
2017,05,26,15,27,21.10
2017,05,26,15,28,21.10
2017,05,26,15,29,21.10
2017,05,26,15,30,21.20
2017,05,26,15,31,21.20
2017,05,26,15,32,21.20
2017,05,26,15,33,21.30
2017,05,26,15,34,21.30
2017,05,26,15,35,21.30
2017,05,26,15,36,21.30
2017,05,26,15,37,21.20
2017,05,26,15,38,21.20
2017,05,26,15,39,21.20
2017,05,26,15,40,21.20
2017,05,26,15,41,21.20
2017,05,26,15,42,21.20
2017,05,26,15,43,21.20
2017,05,26,15,44,21.20
2017,05,26,15,45,21.20
2017,05,26,15,46,21.20
2017,05,26,15,47,21.20
2017,05,26,15,48,21.10
2017,05,26,15,49,21.00
2017,05,26,15,50,21.00
2017,05,26,15,51,21.10
2017,05,26,15,52,21.00
2017,05,26,15,53,21.00
2017,05,26,15,54,21.00
2017,05,26,15,55,21.00
2017,05,26,15,56,21.00
2017,05,26,15,57,21.00
2017,05,26,15,58,21.10
2017,05,26,15,59,21.20
2017,05,26,16,00,21.20
2017,05,26,16,01,21.30
2017,05,26,16,02,21.50
2017,05,26,16,03,21.60
2017,05,26,16,04,21.60
2017,05,26,16,05,21.70
2017,05,26,16,06,21.70
2017,05,26,16,07,21.70
2017,05,26,16,08,21.80
2017,05,26,16,09,21.80
2017,05,26,16,10,21.80
2017,05,26,16,11,21.80
2017,05,26,16,12,21.90
2017,05,26,16,13,21.90
2017,05,26,16,14,21.90
2017,05,26,16,15,21.90
2017,05,26,16,16,22.00
2017,05,26,16,17,22.00
2017,05,26,16,18,22.10
2017,05,26,16,19,22.10
2017,05,26,16,20,22.10
2017,05,26,16,21,22.10
2017,05,26,16,22,22.10
2017,05,26,16,23,22.10
2017,05,26,16,24,22.10
2017,05,26,16,25,22.10
2017,05,26,16,26,22.20
2017,05,26,16,27,22.20
2017,05,26,16,28,22.20
2017,05,26,16,29,22.20
2017,05,26,16,30,22.10
2017,05,26,16,31,22.00
2017,05,26,16,32,22.00
2017,05,26,16,33,21.90
2017,05,26,16,34,22.00
2017,05,26,16,35,22.10
2017,05,26,16,36,22.10
2017,05,26,16,37,22.10
2017,05,26,16,38,22.10
2017,05,26,16,39,22.10
2017,05,26,16,40,22.00
2017,05,26,16,41,21.90
2017,05,26,16,42,21.90
2017,05,26,16,43,21.90
2017,05,26,16,44,22.00
2017,05,26,16,45,22.10
2017,05,26,16,46,22.20
2017,05,26,16,47,22.30
2017,05,26,16,48,22.30
2017,05,26,16,49,22.40
2017,05,26,16,50,22.50
2017,05,26,16,51,22.50
2017,05,26,16,52,22.60
2017,05,26,16,53,22.60
2017,05,26,16,54,22.50
2017,05,26,16,55,22.40
2017,05,26,16,56,22.30
2017,05,26,16,57,22.20
2017,05,26,16,58,22.20
2017,05,26,16,59,22.20
2017,05,26,17,00,22.10
2017,05,26,17,01,22.10
2017,05,26,17,02,22.10
2017,05,26,17,03,22.10
2017,05,26,17,04,22.20
2017,05,26,17,05,22.30
2017,05,26,17,06,22.30
2017,05,26,17,07,22.30
2017,05,26,17,08,22.30
2017,05,26,17,09,22.40
2017,05,26,17,10,22.50
2017,05,26,17,11,22.50
2017,05,26,17,12,22.50
2017,05,26,17,13,22.50
2017,05,26,17,14,22.50
2017,05,26,17,15,22.50
2017,05,26,17,16,22.40
2017,05,26,17,17,22.30
2017,05,26,17,18,22.30
2017,05,26,17,19,22.30